Location: Campillo
(40.8621°N, 4.2488°W)
Time: 16:43:14
(UTC+00:00)

Cosmos 1777 Rocket - Visible Passes

Search period start: 25 September 2021 00:00
Search period end: 05 October 2021 00:00
Orbit: 759 x 775 km, 74.0° (Epoch: 25 September)

Date Brightness Start Highest point End Pass type
(mag) Time Alt. Az. Time Alt. Az. Time Alt. Az.
25 Sep 4.6 05:19:58 10° NNW 05:25:09 64° ENE 05:30:17 10° SSE visible
25 Sep 5.0 19:56:45 10° SW 20:01:48 47° WNW 20:06:51 10° N visible
26 Sep 5.6 04:42:48 10° N 04:47:38 37° ENE 04:52:26 10° SE visible
26 Sep 4.1 19:19:05 10° SSW 19:24:20 81° WNW 19:29:36 10° NNE visible
26 Sep 7.2 21:05:37 10° WNW 21:07:14 11° NW 21:08:52 10° NNW visible
27 Sep 6.4 04:05:55 10° N 04:10:01 23° ENE 04:14:05 10° ESE visible
27 Sep 4.0 18:41:51 10° S 18:46:59 59° ESE 18:52:07 10° NNE visible
27 Sep 6.7 20:25:49 10° W 20:29:26 18° WNW 20:33:03 10° NNW visible
28 Sep 7.0 03:29:32 10° NNE 03:32:16 14° NE 03:34:58 10° E visible
28 Sep 3.9 05:09:44 10° NNW 05:14:57 79° WSW 05:20:08 10° SSE visible
28 Sep 6.0 19:47:11 10° WSW 19:51:45 30° WNW 19:56:19 10° N visible
29 Sep 4.5 04:32:23 10° NNW 04:37:33 60° ENE 04:42:40 10° SSE visible
29 Sep 5.0 19:09:07 10° SW 19:14:12 49° WNW 19:19:17 10° N visible
30 Sep 5.5 03:55:15 10° N 04:00:02 35° ENE 04:04:46 10° SE visible
30 Sep 4.9 05:37:33 10° NW 05:41:53 27° W 05:46:13 10° SSW visible
30 Sep 4.1 18:31:30 10° SSW 18:36:45 85° WNW 18:42:00 10° NNE visible
30 Sep 7.1 20:17:40 10° WNW 20:19:36 12° NW 20:21:32 10° NNW visible
01 Oct 6.3 03:18:24 10° N 03:22:23 22° ENE 03:26:22 10° ESE visible
01 Oct 4.2 04:59:41 10° NNW 05:04:41 48° WSW 05:09:38 10° S visible
01 Oct 6.7 19:38:05 10° WSW 19:41:48 19° WNW 19:45:32 10° NNW visible
02 Oct 6.9 02:42:06 10° NNE 02:44:37 13° NE 02:47:08 10° E visible
02 Oct 3.8 04:22:08 10° NNW 04:27:22 84° WSW 04:32:34 10° SSE visible
02 Oct 6.0 18:59:30 10° SW 19:04:08 31° WNW 19:08:46 10° N visible
03 Oct 4.5 03:44:49 10° NNW 03:49:57 57° ENE 03:55:03 10° SSE visible
03 Oct 5.4 05:28:15 10° WNW 05:31:26 17° W 05:34:38 10° SW visible
03 Oct 5.0 18:21:29 10° SW 18:26:35 52° WNW 18:31:42 10° N visible
04 Oct 5.5 03:07:42 10° N 03:12:25 33° ENE 03:17:06 10° SE visible
04 Oct 4.7 04:49:53 10° NW 04:54:19 29° W 04:58:44 10° SSW visible
04 Oct 7.0 19:29:45 10° WNW 19:31:58 13° NW 19:34:10 10° NNW visible
